[[{"header":{"parameterUnit":"m.s-1","parameterCategory":1,"la1":30.2991,"la2":30.254,"lo1":-89.0895,"lo2":-89.0444,"dy":0.0017,"dx":0.0017,"nx":28,"ny":28,"refTime":"2024-08-17T03:00:00:Z","depth":0,"parameterNumber":2,"parameterNumberName":"U-component_of_WINDS"},"data":[0,0,0,0,0,0,0,0,0,0,0,0,0,0,0,0,0,0,0,0,0,0,0,0,0,0,0,0,0,0,0,0,0,0,0,0,0,0,0,0,0,0,0,0,0,0,0,0,0,0,0,0,0,0,0,0,0,0,-1.1283,-1.1284,0,-1.1324,-1.1324,-1.1325,-1.1302,-1.1301,-1.13,-1.1299,-1.1342,-1.1344,-1.1346,0,0,0,0,0,0,0,0,0,0,0,0,0,-1.1189,-1.119,-1.1283,-1.1284,-1.1284,-1.1324,-1.1324,-1.1325,-1.1302,-1.1301,-1.13,-1.1298,-1.1341,-1.1344,-1.1346,0,0,0,0,0,0,0,0,0,0,0,0,0,-1.1229,-1.1191,-1.1283,-1.1278,-1.1278,-1.1324,-1.1324,-1.1325,-1.1303,-1.1301,-1.1299,-1.1298,-1.134,-1.1344,-1.1347,-1.1401,0,0,-1.1357,-1.1358,0,0,0,0,0,0,0,0,-1.1227,-1.1233,-1.1278,-1.1278,-1.1278,-1.1306,-1.1307,-1.1351,-1.1303,-1.1293,-1.1299,-1.1297,-1.1332,-1.1335,-1.1347,-1.1403,-1.1405,-1.1357,-1.1359,-1.1361,-1.1362,0,0,0,0,0,0,0,-1.1224,-1.1231,-1.1299,-1.1279,-1.1279,-1.1274,-1.1278,-1.1315,-1.1321,-1.1294,-1.1292,-1.1297,-1.1331,-1.1344,-1.1348,-1.1406,-1.1357,-1.136,-1.1362,-1.1363,-1.1509,-1.1511,0,0,0,0,0,0,-1.1222,-1.1229,-1.1298,-1.1301,-1.1248,-1.1277,-1.1281,-1.1299,-1.1321,-1.1323,-1.1299,-1.1296,-1.1339,-1.1344,-1.1349,-1.1414,-1.1361,-1.1364,-1.1366,-1.1507,-1.1509,-1.1511,0,0,0,0,0,0,-1.122,-1.1228,-1.1297,-1.1264,-1.1273,-1.128,-1.13,-1.1301,-1.1313,-1.1325,-1.1326,-1.131,-1.1338,-1.1344,-1.1388,-1.1415,-1.1365,-1.1368,-1.1505,-1.1508,-1.151,-1.1545,0,0,0,0,0,0,-1.1217,-1.1227,-1.1248,-1.1265,-1.1275,-1.1335,-1.1302,-1.1303,-1.1319,-1.1316,-1.1336,-1.1337,-1.1337,-1.1383,-1.1392,-1.1419,-1.1371,-1.1502,-1.1506,-1.1509,-1.1541,-1.1548,-1.1554,0,0,0,0,0,-1.1214,-1.1256,-1.1249,-1.1257,-1.13,-1.1336,-1.1342,-1.134,-1.1321,-1.1342,-1.1349,-1.1337,-1.1411,-1.1388,-1.1397,-1.1426,-1.1501,-1.1505,-1.1509,-1.1538,-1.1547,-1.1554,0,0,0,0,0,0,-1.1242,-1.1258,-1.125,-1.1299,-1.1317,-1.1332,-1.1358,-1.1349,-1.1372,-1.1369,-1.1366,-1.1371,-1.1416,-1.1426,-1.14,-1.148,-1.1453,-1.1459,-1.1472,-1.148,-1.1487,-1.1484,-1.1373,0,0,0,0,0,-1.1254,-1.1282,-1.1294,-1.1337,-1.1345,-1.135,-1.1366,-1.1363,-1.1381,-1.1389,-1.1399,-1.1418,-1.1445,-1.1463,-1.1489,-1.1542,-1.1547,-1.1567,-1.1573,-1.1579,-1.1584,-1.1613,-1.1623,-1.1525,-1.1525,-1.1525,0,0,-1.1279,-1.1291,-1.1309,-1.1343,-1.1355,-1.1385,-1.1357,-1.1389,-1.1411,-1.1394,-1.1435,-1.1444,-1.1464,-1.1513,-1.1535,-1.1522,-1.1612,-1.1584,-1.1588,-1.1591,-1.1619,-1.1628,-1.1636,-1.1528,-1.1527,-1.1527,0,0,-1.134,-1.1352,-1.1388,-1.1401,-1.1421,-1.1424,-1.1433,-1.145,-1.1455,-1.1497,-1.1485,-1.1511,-1.1559,-1.1574,-1.1588,-1.1654,-1.1644,-1.1663,-1.1698,-1.1726,-1.1734,-1.1741,-1.1765,-1.1773,-1.1668,-1.1668,-1.1668,0,-1.1369,-1.1411,-1.1408,-1.1441,-1.1456,-1.1442,-1.1479,-1.1493,-1.152,-1.1531,-1.1516,-1.1576,-1.1588,-1.164,-1.1657,-1.1668,-1.1679,-1.1661,-1.1733,-1.174,-1.1746,-1.1769,-1.1778,-1.167,-1.167,-1.167,-1.167,0,-1.1446,-1.1476,-1.1503,-1.153,-1.1548,-1.1583,-1.1586,-1.1605,-1.1601,-1.1605,-1.1649,-1.1663,-1.1692,-1.1704,-1.1701,-1.1756,-1.1748,-1.1733,-1.1706,-1.1758,-1.1779,-1.1788,-1.1674,-1.1673,-1.1672,-1.1672,0,0,-1.1526,-1.155,-1.156,-1.1572,-1.1593,-1.1616,-1.1651,-1.1678,-1.1695,-1.1715,-1.1744,-1.1784,-1.1771,-1.1787,-1.1785,-1.181,-1.1862,-1.1792,-1.1792,-1.1805,-1.1925,-1.1936,-1.1946,-1.1855,-1.1857,-1.1858,-1.1923,0,-1.1588,-1.1648,-1.1646,-1.1702,-1.173,-1.1716,-1.1747,-1.1763,-1.1769,-1.1794,-1.18,-1.1829,-1.1809,-1.1818,-1.1842,-1.185,-1.1886,-1.1846,-1.1883,-1.1884,-1.1878,-1.1957,-1.1969,-1.203,-1.1932,-1.1933,-1.1934,0,-1.1668,-1.169,-1.1749,-1.1765,-1.1777,-1.1804,-1.183,-1.1853,-1.1872,-1.1875,-1.1892,-1.1886,-1.1922,-1.1894,-1.1944,-1.1916,-1.1932,-1.1938,-1.194,-1.1944,-1.1912,-1.1963,-1.2049,-1.2058,-1.1947,-1.1946,-1.1945,0,-1.1721,-1.1765,-1.1806,-1.1816,-1.1837,-1.1856,-1.1866,-1.1883,-1.19,-1.1922,-1.1933,-1.196,-1.1974,-1.1995,-1.1997,-1.1976,-1.2047,-1.2019,-1.2051,-1.2051,-1.2066,-1.2065,-1.2156,-1.2076,-1.2076,-1.2076,-1.2075,0,-1.1791,-1.1827,-1.183,-1.1855,-1.1895,-1.1893,-1.1934,-1.1942,-1.1957,-1.1984,-1.1974,-1.2,-1.2,-1.2027,-1.2028,-1.2069,-1.2076,-1.2079,-1.2079,-1.208,-1.208,-1.209,-1.2086,-1.2078,-1.2077,-1.2077,-1.2077,0,-1.1857,-1.186,-1.1903,-1.1919,-1.1924,-1.1953,-1.1967,-1.1991,-1.1996,-1.203,-1.2038,-1.2046,-1.2076,-1.208,-1.2116,-1.2117,-1.2167,-1.2162,-1.216,-1.2159,-1.2191,-1.2188,-1.2292,-1.2305,-1.2216,-1.2217,-1.2217,0,-1.1901,-1.1929,-1.1947,-1.1964,-1.1975,-1.2002,-1.2019,-1.2018,-1.2037,-1.206,-1.2082,-1.2111,-1.2135,-1.2184,-1.2194,-1.2221,-1.2217,-1.2252,-1.2221,-1.2222,-1.2218,-1.2217,-1.222,-1.2258,-1.2259,-1.2259,-1.226,0,-1.198,-1.198,-1.2004,-1.2029,-1.205,-1.207,-1.2088,-1.2103,-1.2104,-1.2126,-1.2156,-1.2175,-1.2211,-1.2241,-1.2268,-1.2278,-1.227,-1.2269,-1.2278,-1.228,-1.2278,-1.228,-1.2176,-1.2267,-1.2266,-1.2266,-1.2266,-1.2265,-1.2036,-1.206,-1.2077,-1.2105,-1.2119,-1.2136,-1.216,-1.2167,-1.2193,-1.2222,-1.222,-1.2254,-1.2273,-1.2308,-1.2321,-1.2348,-1.2337,-1.2349,-1.2353,-1.2356,-1.2359,-1.2273,-1.2353,-1.2353,-1.2352,-1.2352,-1.2352,0,-1.2115,-1.2125,-1.215,-1.2177,-1.2199,-1.2188,-1.2208,-1.2227,-1.2257,-1.2275,-1.2298,-1.2334,-1.2362,-1.2374,-1.2402,-1.2422,-1.2419,-1.2429,-1.2428,-1.2431,-1.2367,-1.2357,-1.2431,-1.2431,-1.2431,-1.2431,-1.2431,-1.2431,-1.2158,-1.2199,-1.2201,-1.2248,-1.2258,-1.2291,-1.2303,-1.232,-1.2334,-1.2374,-1.2397,-1.2404,-1.242,-1.2449,-1.2475,-1.2478,-1.2489,-1.2501,-1.2502,-1.2443,-1.2435,-1.2427,-1.2418,-1.2504,-1.2504,-1.2563,-1.2564,-1.2564]},{"header":{"parameterUnit":"m.s-1","parameterCategory":1,"la1":30.2991,"la2":30.254,"lo1":-89.0895,"lo2":-89.0444,"dy":0.0017,"dx":0.0017,"nx":28,"ny":28,"refTime":"2024-08-17T03:00:00:Z","depth":0,"parameterNumber":3,"parameterNumberName":"V-component_of_WINDS"},"data":[0,0,0,0,0,0,0,0,0,0,0,0,0,0,0,0,0,0,0,0,0,0,0,0,0,0,0,0,0,0,0,0,0,0,0,0,0,0,0,0,0,0,0,0,0,0,0,0,0,0,0,0,0,0,0,0,0,0,3.8813,3.8814,0,3.8861,3.8861,3.8862,3.8824,3.8822,3.8821,3.8819,3.8865,3.8868,3.8871,0,0,0,0,0,0,0,0,0,0,0,0,0,3.8687,3.8689,3.8813,3.8814,3.8815,3.8861,3.8861,3.8862,3.8824,3.8822,3.882,3.8818,3.8865,3.8868,3.8871,0,0,0,0,0,0,0,0,0,0,0,0,0,3.8739,3.869,3.8813,3.8801,3.8801,3.8861,3.8861,3.8862,3.8824,3.8822,3.882,3.8817,3.8863,3.8867,3.8872,3.8945,0,0,3.8884,3.8886,0,0,0,0,0,0,0,0,3.8736,3.8743,3.8802,3.8802,3.8802,3.8834,3.8834,3.889,3.8825,3.8815,3.8819,3.8816,3.8857,3.8861,3.8875,3.8947,3.8949,3.8884,3.8887,3.8889,3.889,0,0,0,0,0,0,0,3.8732,3.8741,3.8832,3.8803,3.8803,3.8792,3.8797,3.8844,3.8849,3.8816,3.8813,3.882,3.8856,3.8872,3.8876,3.895,3.8884,3.8888,3.889,3.8892,3.9082,3.9085,0,0,0,0,0,0,3.873,3.8738,3.8831,3.8834,3.8762,3.8797,3.8802,3.8826,3.8848,3.885,3.8822,3.8818,3.8866,3.8871,3.8878,3.8963,3.8889,3.8892,3.8895,3.908,3.9083,3.9086,0,0,0,0,0,0,3.8728,3.8739,3.8829,3.8785,3.8796,3.8801,3.8829,3.8828,3.8844,3.8853,3.8853,3.8837,3.8864,3.8872,3.8928,3.8965,3.8894,3.8898,3.9077,3.9081,3.9084,3.9137,0,0,0,0,0,0,3.8724,3.8738,3.8767,3.8786,3.8798,3.888,3.8831,3.8831,3.8851,3.8846,3.8867,3.8868,3.8863,3.8922,3.8932,3.8969,3.8901,3.9073,3.9078,3.9083,3.9132,3.9142,3.9151,0,0,0,0,0,3.872,3.878,3.8769,3.878,3.8835,3.8882,3.8889,3.8882,3.8854,3.8882,3.8888,3.8867,3.8959,3.8928,3.8939,3.8978,3.9071,3.9077,3.9083,3.9128,3.914,3.9151,0,0,0,0,0,0,3.8765,3.8782,3.877,3.8839,3.8859,3.8875,3.8911,3.8896,3.8924,3.8918,3.8908,3.8913,3.8972,3.8981,3.8946,3.9049,3.9011,3.9019,3.9041,3.9053,3.9062,3.9058,3.8905,0,0,0,0,0,3.8783,3.882,3.8833,3.8892,3.8903,3.8906,3.8926,3.8919,3.8939,3.8948,3.8957,3.8977,3.901,3.9032,3.9064,3.9133,3.9136,3.9165,3.9175,3.9182,3.9189,3.9224,3.9236,3.9105,3.9105,3.9105,0,0,3.882,3.8834,3.8858,3.8902,3.8917,3.8954,3.8913,3.8955,3.8983,3.8954,3.9007,3.9015,3.9036,3.9099,3.9127,3.9108,3.9226,3.919,3.9196,3.9198,3.9231,3.9244,3.9255,3.9109,3.9108,3.9107,0,0,3.8906,3.8922,3.8972,3.8988,3.9011,3.9012,3.9024,3.9042,3.9046,3.91,3.9079,3.9111,3.9169,3.9184,3.92,3.9291,3.9272,3.9302,3.935,3.9385,3.9395,3.9404,3.9434,3.9446,3.9309,3.9309,3.9309,0,3.8949,3.9006,3.8999,3.9042,3.9061,3.9037,3.9087,3.9102,3.9134,3.9147,3.9126,3.9197,3.921,3.9275,3.9297,3.9311,3.9323,3.9298,3.9394,3.9403,3.9412,3.944,3.9452,3.9312,3.9312,3.9311,3.9311,0,3.9057,3.9096,3.9134,3.9165,3.9188,3.9235,3.9233,3.9257,3.9248,3.9251,3.9305,3.932,3.9352,3.9368,3.9359,3.9431,3.9418,3.9396,3.9357,3.9428,3.9454,3.9465,3.9317,3.9316,3.9315,3.9314,0,0,3.9172,3.9199,3.9212,3.9226,3.9249,3.9279,3.9324,3.9356,3.9376,3.9399,3.9434,3.9484,3.9463,3.948,3.9473,3.9504,3.9572,3.9478,3.9478,3.9493,3.9649,3.9664,3.9677,3.9561,3.9563,3.9565,3.9647,0,3.9258,3.9336,3.933,3.9403,3.9438,3.9416,3.9454,3.9472,3.9475,3.9505,3.9509,3.9543,3.9514,3.9524,3.9553,3.9558,3.9603,3.9552,3.9592,3.9593,3.9585,3.9692,3.9708,3.9785,3.9657,3.9659,3.9661,0,3.9369,3.9395,3.9471,3.9488,3.9502,3.9537,3.9565,3.9595,3.9614,3.9614,3.9633,3.9621,3.9664,3.9625,3.9683,3.9649,3.9665,3.9669,3.9672,3.9674,3.963,3.9694,3.981,3.982,3.9677,3.9676,3.9675,0,3.9442,3.9497,3.9549,3.9562,3.9583,3.9607,3.9617,3.9634,3.9653,3.9678,3.969,3.9719,3.9735,3.9757,3.9752,3.9725,3.9811,3.9772,3.9811,3.9811,3.9828,3.9827,3.9945,3.9842,3.9842,3.9842,3.9842,0,3.9538,3.9584,3.9582,3.9614,3.9665,3.9658,3.9709,3.9716,3.9731,3.9762,3.9745,3.9775,3.9768,3.9797,3.9794,3.9841,3.9849,3.9849,3.9847,3.985,3.9849,3.9858,3.9852,3.9845,3.9844,3.9844,3.9843,0,3.9628,3.9629,3.9684,3.9699,3.9704,3.9741,3.9753,3.9783,3.9785,3.9825,3.9834,3.9837,3.987,3.9869,3.9907,3.9904,3.9962,3.9955,3.9955,3.9953,3.999,3.9986,4.0117,4.0133,4.0022,4.0023,4.0024,0,3.9688,3.9723,3.9742,3.9762,3.9774,3.9807,3.9826,3.982,3.9841,3.9864,3.989,3.9922,3.9947,4.0002,4.0006,4.0035,4.0027,4.0071,4.0031,4.0031,4.0025,4.0022,4.0024,4.0078,4.008,4.0081,4.0081,0,3.9793,3.9791,3.982,3.9849,3.9872,3.9895,3.9915,3.9932,3.9928,3.9952,3.9986,4.0006,4.0044,4.0075,4.0102,4.0111,4.0095,4.0094,4.0104,4.0106,4.0103,4.0103,3.9974,4.0091,4.009,4.0089,4.0089,4.0088,3.9868,3.9898,3.9915,3.9948,3.9962,3.9981,4.0009,4.0014,4.0043,4.0074,4.0068,4.0106,4.0122,4.0157,4.0168,4.0197,4.0181,4.0196,4.0199,4.0202,4.0205,4.0101,4.0202,4.0202,4.0201,4.0201,4.0201,0,3.997,3.998,4.001,4.0039,4.0064,4.0048,4.0069,4.009,4.0124,4.0141,4.0166,4.0204,4.0234,4.0241,4.0269,4.029,4.0284,4.0298,4.0295,4.0297,4.0219,4.0207,4.0303,4.0303,4.0303,4.0303,4.0303,4.0303,4.0026,4.0075,4.0075,4.013,4.0139,4.0176,4.0189,4.0206,4.022,4.0263,4.0288,4.0292,4.0305,4.0334,4.036,4.0361,4.0371,4.0388,4.0386,4.0313,4.0303,4.0293,4.0281,4.0391,4.0391,4.0461,4.0461,4.0462]}]]